sat.trackr.live / text

‹ back to catalog

GSAT-19

NORAD 42747 · 2017-031A

PAYLOAD ACTIVE UNKNOWN

§ Identity

Operator
Country
IND
Launch date
2017-06-05
Launch site
SRILR
Launch vehicle
Mass (kg)
RCS (m²)

Purposes: comms

External: N2YO · Heavens-Above · Gunter

§ Orbital elements

Epoch: 2026-05-25T03:58:15.953088Z

Period
1,436.11 min
Inclination
0.0757°
Eccentricity
0.0006974
Mean motion
1.00271022 rev/d
Perigee alt
35,757.4 km
Apogee alt
35,816.2 km
Semi-major
42,164.9 km
B*
0.0000e+0
RAAN
94.2958°
Arg perigee
335.8701°
Mean anomaly
280.0403°
Rev number
3,291

§ Raw data

GSAT-191 42747U 17031A   26145.16546242  .00000123  00000+0  00000+0 0  99982 42747   0.0757  94.2958 0006974 335.8701 280.0403  1.00271022 32912

JSON: /api/v1/satellites/42747 · /tle

For live sub-satellite position, see the globe view (requires WebGL).

§ Visibility from observer

Set your observer location to see the next 7 days of passes ≥ 10°. The values pass through the URL so the page stays shareable.

No JS? Fill the form by hand. The geolocation button needs JavaScript.